Dew Point Data


Current

Temp 52.0 F. Dew Point 30.9 F.


Dew Point Comfort Scale

dewpoints

Date, Time Temperature Dew Point
Thu Nov 18 00:08:05 2021 44.0 F. 41.0 F.
Thu Nov 18 01:08:04 2021 44.0 F. 41.0 F.
Thu Nov 18 02:08:04 2021 44.0 F. 42.1 F.
Thu Nov 18 03:08:05 2021 44.0 F. 39.0 F.
Thu Nov 18 04:08:05 2021 44.0 F. 36.0 F.
Thu Nov 18 05:08:04 2021 44.0 F. 36.0 F.
Thu Nov 18 06:08:04 2021 41.0 F. 32.0 F.
Thu Nov 18 07:08:05 2021 39.0 F. 30.9 F.
Thu Nov 18 08:08:04 2021 42.0 F. 32.0 F.
Thu Nov 18 09:08:05 2021 42.0 F. 32.0 F.
Thu Nov 18 10:08:04 2021 47.0 F. 26.1 F.
Thu Nov 18 11:08:04 2021 47.0 F. 26.1 F.
Thu Nov 18 12:08:05 2021 47.0 F. 21.9 F.
Thu Nov 18 13:08:05 2021 50.0 F. 21.9 F.
Thu Nov 18 14:08:04 2021 49.0 F. 18.0 F.
Thu Nov 18 15:08:05 2021 50.0 F. 18.0 F.
Thu Nov 18 16:08:05 2021 48.0 F. 18.0 F.
Thu Nov 18 17:08:04 2021 44.0 F. 17.1 F.
Thu Nov 18 18:08:04 2021 44.0 F. 17.1 F.
Thu Nov 18 19:08:04 2021 42.0 F. 17.1 F.
Thu Nov 18 20:08:05 2021 41.0 F. 17.1 F.
Thu Nov 18 21:08:05 2021 35.0 F. 19.9 F.
Thu Nov 18 22:08:05 2021 35.0 F. 19.9 F.
Thu Nov 18 23:08:04 2021 34.0 F. 26.1 F.
Fri Nov 19 00:08:05 2021 28.0 F. 23.0 F.
Fri Nov 19 01:08:05 2021 30.0 F. 25.0 F.
Fri Nov 19 02:08:04 2021 30.0 F. 25.0 F.
Fri Nov 19 03:08:04 2021 26.0 F. 24.1 F.
Fri Nov 19 04:08:04 2021 27.0 F. 23.0 F.
Fri Nov 19 05:08:05 2021 26.0 F. 24.1 F.
Fri Nov 19 06:08:05 2021 26.0 F. 24.1 F.
Fri Nov 19 07:08:05 2021 24.0 F. 23.0 F.
Fri Nov 19 08:08:04 2021 23.0 F. 21.9 F.
Fri Nov 19 09:08:04 2021 23.0 F. 21.9 F.
Fri Nov 19 10:08:04 2021 24.0 F. 23.0 F.
Fri Nov 19 11:08:05 2021 34.0 F. 28.0 F.
Fri Nov 19 12:08:05 2021 42.0 F. 24.1 F.
Fri Nov 19 13:08:05 2021 42.0 F. 24.1 F.
Fri Nov 19 14:08:04 2021 46.0 F. 23.0 F.
Fri Nov 19 15:08:06 2021 46.0 F. 21.9 F.
Fri Nov 19 16:08:04 2021 46.0 F. 21.9 F.
Fri Nov 19 17:08:05 2021 41.0 F. 24.1 F.
Fri Nov 19 18:08:04 2021 41.0 F. 24.1 F.
Fri Nov 19 19:08:05 2021 36.0 F. 26.1 F.
Fri Nov 19 20:08:05 2021 37.0 F. 27.0 F.
Fri Nov 19 21:08:04 2021 34.0 F. 26.1 F.
Fri Nov 19 22:08:04 2021 34.0 F. 26.1 F.
Fri Nov 19 23:08:05 2021 34.0 F. 26.1 F.
Sat Nov 20 00:08:04 2021 36.0 F. 26.1 F.
Sat Nov 20 01:08:05 2021 34.0 F. 27.0 F.
Sat Nov 20 02:08:04 2021 37.0 F. 27.0 F.
Sat Nov 20 03:08:04 2021 37.0 F. 27.0 F.
Sat Nov 20 04:08:05 2021 39.0 F. 28.0 F.
Sat Nov 20 05:08:04 2021 37.0 F. 28.0 F.
Sat Nov 20 06:08:04 2021 39.0 F. 28.0 F.
Sat Nov 20 07:08:05 2021 39.0 F. 28.0 F.
Sat Nov 20 08:08:04 2021 39.0 F. 28.0 F.
Sat Nov 20 09:08:05 2021 45.0 F. 30.0 F.
Sat Nov 20 10:08:05 2021 48.0 F. 30.0 F.
Sat Nov 20 11:08:04 2021 48.0 F. 30.0 F.
Sat Nov 20 12:08:04 2021 51.0 F. 30.9 F.
Sat Nov 20 13:08:06 2021 54.0 F. 32.0 F.
Sat Nov 20 14:08:04 2021 54.0 F. 32.0 F.
Sat Nov 20 15:08:05 2021 56.0 F. 30.0 F.
Sat Nov 20 16:08:05 2021 56.0 F. 30.9 F.
Sat Nov 20 17:08:05 2021 54.0 F. 32.0 F.
Sat Nov 20 18:08:05 2021 54.0 F. 32.0 F.
Sat Nov 20 19:08:05 2021 46.0 F. 33.1 F.
Sat Nov 20 20:08:05 2021 49.0 F. 35.1 F.
Sat Nov 20 21:08:05 2021 49.0 F. 35.1 F.
Sat Nov 20 22:08:05 2021 47.0 F. 37.0 F.
Sat Nov 20 23:08:04 2021 47.0 F. 37.0 F.
Sun Nov 21 00:08:05 2021 51.0 F. 36.0 F.
Sun Nov 21 01:08:04 2021 51.0 F. 37.0 F.
Sun Nov 21 02:08:05 2021 49.0 F. 41.0 F.
Sun Nov 21 03:08:04 2021 49.0 F. 41.0 F.
Sun Nov 21 04:08:04 2021 49.0 F. 44.1 F.
Sun Nov 21 05:08:05 2021 49.0 F. 44.1 F.
Sun Nov 21 06:08:05 2021 48.0 F. 46.0 F.
Sun Nov 21 07:08:05 2021 48.0 F. 46.9 F.
Sun Nov 21 08:08:05 2021 48.0 F. 46.9 F.
Sun Nov 21 09:08:04 2021 50.0 F. 48.0 F.
Sun Nov 21 10:08:04 2021 50.0 F. 48.0 F.
Sun Nov 21 11:08:05 2021 50.0 F. 48.0 F.
Sun Nov 21 12:08:04 2021 51.0 F. 48.0 F.
Sun Nov 21 13:08:05 2021 52.0 F. 48.0 F.
Sun Nov 21 14:08:04 2021 53.0 F. 48.0 F.
Sun Nov 21 15:08:05 2021 53.0 F. 48.0 F.
Sun Nov 21 16:08:05 2021 53.0 F. 46.9 F.
Sun Nov 21 17:08:04 2021 53.0 F. 46.9 F.
Sun Nov 21 18:08:05 2021 50.0 F. 46.0 F.
Sun Nov 21 19:08:04 2021 50.0 F. 46.0 F.
Sun Nov 21 20:08:05 2021 50.0 F. 46.0 F.
Sun Nov 21 21:08:04 2021 50.0 F. 46.0 F.
Sun Nov 21 22:08:05 2021 38.0 F. 37.0 F.
Sun Nov 21 23:08:05 2021 38.0 F. 37.0 F.
Mon Nov 22 00:08:05 2021 38.0 F. 37.0 F.
Mon Nov 22 01:08:05 2021 38.0 F. 37.0 F.
Mon Nov 22 02:08:04 2021 38.0 F. 37.0 F.
Mon Nov 22 03:08:21 2021
Mon Nov 22 04:08:05 2021 38.0 F. 37.0 F.
Mon Nov 22 05:08:05 2021 38.0 F. 37.0 F.
Mon Nov 22 06:08:05 2021 38.0 F. 37.0 F.
Mon Nov 22 07:08:04 2021 38.0 F. 37.0 F.
Mon Nov 22 08:08:04 2021 38.0 F. 37.0 F.
Mon Nov 22 09:08:05 2021 32.0 F. 21.0 F.
Mon Nov 22 10:08:05 2021 32.0 F. 21.0 F.
Mon Nov 22 11:08:04 2021 34.0 F. 19.0 F.
Mon Nov 22 12:08:05 2021 36.0 F. 18.0 F.
Mon Nov 22 13:08:04 2021 40.0 F. 16.0 F.
Mon Nov 22 14:08:04 2021 40.0 F. 15.1 F.
Mon Nov 22 15:08:05 2021 41.0 F. 18.0 F.
Mon Nov 22 16:08:04 2021 41.0 F. 18.0 F.
Mon Nov 22 17:08:05 2021 41.0 F. 18.0 F.
Mon Nov 22 18:08:04 2021 41.0 F. 18.0 F.
Mon Nov 22 19:08:05 2021 41.0 F. 18.0 F.
Mon Nov 22 20:08:05 2021 41.0 F. 18.0 F.
Mon Nov 22 21:08:04 2021 41.0 F. 18.0 F.
Mon Nov 22 22:08:05 2021 41.0 F. 18.0 F.
Mon Nov 22 23:08:04 2021 41.0 F. 18.0 F.
Tue Nov 23 00:08:05 2021 41.0 F. 18.0 F.
Tue Nov 23 01:08:04 2021 41.0 F. 18.0 F.
Tue Nov 23 02:08:05 2021 41.0 F. 18.0 F.
Tue Nov 23 03:08:05 2021 41.0 F. 18.0 F.
Tue Nov 23 04:08:04 2021 41.0 F. 18.0 F.
Tue Nov 23 05:08:05 2021 41.0 F. 18.0 F.
Tue Nov 23 06:08:05 2021 22.0 F. 21.0 F.
Tue Nov 23 07:08:05 2021 22.0 F. 21.0 F.
Tue Nov 23 08:08:05 2021 22.0 F. 21.0 F.
Tue Nov 23 09:08:04 2021 22.0 F. 21.0 F.
Tue Nov 23 10:08:05 2021 22.0 F. 21.0 F.
Tue Nov 23 11:08:05 2021 22.0 F. 21.0 F.
Tue Nov 23 12:08:05 2021 22.0 F. 21.0 F.
Tue Nov 23 13:08:04 2021 22.0 F. 21.0 F.
Tue Nov 23 14:08:04 2021 22.0 F. 21.0 F.
Tue Nov 23 15:08:05 2021 22.0 F. 21.0 F.
Tue Nov 23 16:08:04 2021 22.0 F. 21.0 F.
Tue Nov 23 17:08:05 2021 22.0 F. 21.0 F.
Tue Nov 23 18:08:04 2021 22.0 F. 21.0 F.
Tue Nov 23 19:08:05 2021 22.0 F. 21.0 F.
Tue Nov 23 20:08:05 2021 22.0 F. 21.0 F.
Tue Nov 23 21:08:04 2021 22.0 F. 21.0 F.
Tue Nov 23 22:08:04 2021 22.0 F. 21.0 F.
Tue Nov 23 23:08:05 2021 22.0 F. 21.0 F.
Wed Nov 24 00:08:05 2021 22.0 F. 21.0 F.
Wed Nov 24 01:08:05 2021 22.0 F. 21.0 F.
Wed Nov 24 02:08:04 2021 22.0 F. 21.0 F.
Wed Nov 24 03:08:05 2021 22.0 F. 21.0 F.
Wed Nov 24 04:08:05 2021 22.0 F. 21.0 F.
Wed Nov 24 05:08:04 2021 22.0 F. 21.0 F.
Wed Nov 24 06:08:04 2021 22.0 F. 21.0 F.
Wed Nov 24 07:08:04 2021 22.0 F. 21.0 F.
Wed Nov 24 08:08:05 2021 22.0 F. 21.0 F.
Wed Nov 24 09:08:04 2021 22.0 F. 21.0 F.
Wed Nov 24 10:08:05 2021 22.0 F. 21.0 F.
Wed Nov 24 11:08:04 2021 52.0 F. 30.9 F.
Wed Nov 24 12:08:05 2021 52.0 F. 30.9 F.
Wed Nov 24 13:08:05 2021 52.0 F. 30.9 F.
Wed Nov 24 14:08:05 2021 52.0 F. 30.9 F.
Wed Nov 24 15:08:05 2021 52.0 F. 30.9 F.
Wed Nov 24 16:08:04 2021 52.0 F. 30.9 F.
Wed Nov 24 17:08:04 2021 52.0 F. 30.9 F.
Wed Nov 24 18:08:04 2021 52.0 F. 30.9 F.
Wed Nov 24 19:08:05 2021 52.0 F. 30.9 F.
Wed Nov 24 20:08:05 2021 52.0 F. 30.9 F.
Wed Nov 24 21:08:05 2021 52.0 F. 30.9 F.
Wed Nov 24 22:08:04 2021 52.0 F. 30.9 F.
Wed Nov 24 23:08:05 2021 52.0 F. 30.9 F.
Thu Nov 25 00:08:05 2021 52.0 F. 30.9 F.
Thu Nov 25 01:08:05 2021 52.0 F. 30.9 F.
Thu Nov 25 02:08:04 2021 52.0 F. 30.9 F.
Thu Nov 25 03:08:05 2021 52.0 F. 30.9 F.
Thu Nov 25 04:08:05 2021 52.0 F. 30.9 F.
Thu Nov 25 05:08:05 2021 52.0 F. 30.9 F.
Thu Nov 25 06:08:04 2021 52.0 F. 30.9 F.
Thu Nov 25 07:08:04 2021 52.0 F. 30.9 F.
Thu Nov 25 08:08:05 2021 52.0 F. 30.9 F.
Thu Nov 25 09:08:04 2021 52.0 F. 30.9 F.
Thu Nov 25 10:08:05 2021 52.0 F. 30.9 F.
Thu Nov 25 11:08:05 2021 52.0 F. 30.9 F.
Thu Nov 25 12:08:04 2021 52.0 F. 30.9 F.
Thu Nov 25 13:08:05 2021 52.0 F. 30.9 F.
Thu Nov 25 14:08:04 2021 52.0 F. 30.9 F.
Thu Nov 25 15:08:04 2021 52.0 F. 30.9 F.
Thu Nov 25 16:08:05 2021 52.0 F. 30.9 F.
Thu Nov 25 17:08:04 2021 52.0 F. 30.9 F.
Thu Nov 25 18:08:05 2021 52.0 F. 30.9 F.
Thu Nov 25 19:08:05 2021 52.0 F. 30.9 F.
Thu Nov 25 20:08:04 2021 52.0 F. 30.9 F.
Thu Nov 25 21:08:05 2021 52.0 F. 30.9 F.
Thu Nov 25 22:08:04 2021 52.0 F. 30.9 F.
Thu Nov 25 23:08:04 2021 52.0 F. 30.9 F.
Fri Nov 26 00:08:05 2021 52.0 F. 30.9 F.
Fri Nov 26 01:08:05 2021 52.0 F. 30.9 F.
Fri Nov 26 02:08:05 2021 52.0 F. 30.9 F.
Fri Nov 26 03:08:04 2021 52.0 F. 30.9 F.
Fri Nov 26 04:08:05 2021 52.0 F. 30.9 F.
Fri Nov 26 05:08:04 2021 52.0 F. 30.9 F.
Fri Nov 26 06:08:05 2021 52.0 F. 30.9 F.
Fri Nov 26 07:08:05 2021 52.0 F. 30.9 F.
Fri Nov 26 08:08:04 2021 52.0 F. 30.9 F.
Fri Nov 26 09:08:05 2021 52.0 F. 30.9 F.
Fri Nov 26 10:08:05 2021 52.0 F. 30.9 F.
Fri Nov 26 11:08:04 2021 52.0 F. 30.9 F.
Fri Nov 26 12:08:04 2021 52.0 F. 30.9 F.
Fri Nov 26 13:08:05 2021 52.0 F. 30.9 F.
Fri Nov 26 14:08:05 2021 52.0 F. 30.9 F.
Fri Nov 26 15:08:04 2021 52.0 F. 30.9 F.
Fri Nov 26 16:08:05 2021 52.0 F. 30.9 F.
Fri Nov 26 17:08:05 2021 52.0 F. 30.9 F.
Fri Nov 26 18:08:04 2021 52.0 F. 30.9 F.
Fri Nov 26 19:08:04 2021 52.0 F. 30.9 F.
Fri Nov 26 20:08:05 2021 52.0 F. 30.9 F.
Fri Nov 26 21:08:05 2021 52.0 F. 30.9 F.
Fri Nov 26 22:08:05 2021 52.0 F. 30.9 F.
Fri Nov 26 23:08:05 2021 52.0 F. 30.9 F.
Sat Nov 27 00:08:04 2021 52.0 F. 30.9 F.
Sat Nov 27 01:08:05 2021 52.0 F. 30.9 F.
Sat Nov 27 02:08:04 2021 52.0 F. 30.9 F.
Sat Nov 27 03:08:04 2021 52.0 F. 30.9 F.
Sat Nov 27 04:08:05 2021 52.0 F. 30.9 F.
Sat Nov 27 05:08:05 2021 52.0 F. 30.9 F.
Sat Nov 27 06:08:05 2021 52.0 F. 30.9 F.
Sat Nov 27 07:08:04 2021 52.0 F. 30.9 F.
Sat Nov 27 08:08:05 2021 52.0 F. 30.9 F.
Sat Nov 27 09:08:05 2021 52.0 F. 30.9 F.
Sat Nov 27 10:08:04 2021 52.0 F. 30.9 F.
Sat Nov 27 11:08:04 2021 52.0 F. 30.9 F.
Sat Nov 27 12:08:05 2021 52.0 F. 30.9 F.
Sat Nov 27 13:08:05 2021 52.0 F. 30.9 F.
Sat Nov 27 14:08:04 2021 52.0 F. 30.9 F.
Sat Nov 27 15:08:04 2021 52.0 F. 30.9 F.
Sat Nov 27 16:08:05 2021 52.0 F. 30.9 F.
Sat Nov 27 17:08:04 2021 52.0 F. 30.9 F.
Sat Nov 27 18:08:04 2021 52.0 F. 30.9 F.
Sat Nov 27 19:08:05 2021 52.0 F. 30.9 F.